owner,sensor,date,latitude,longitude,vertical_datum,wind_speed,wind_to_direction,wind_speed_of_gust,qcFlag 
TABS,ioos:station:wmo:42045:1,2019-02-01T00:00:00Z,26.2168,-96.4998,4.0,2.208574201,156.8016742,2.86,'11111222,11111222,11111222' 
TABS,ioos:station:wmo:42045:1,2019-02-01T00:30:00Z,26.2168,-96.4998,4.0,2.010895323,181.7100205,2.56,'11111222,11111222,11111222' 
TABS,ioos:station:wmo:42045:1,2019-02-01T01:00:00Z,26.2168,-96.4998,4.0,1.117720895,236.3100113,1.77,'11111222,11111222,11111222' 
TABS,ioos:station:wmo:42045:1,2019-02-01T01:30:00Z,26.2168,-96.4998,4.0,2.366178353,247.1194163,2.85,'11111222,11111222,11111222' 
TABS,ioos:station:wmo:42045:1,2019-02-01T02:00:00Z,26.2168,-96.4998,4.0,1.523975065,228.991009,2.02,'11111222,11111222,11111222' 
TABS,ioos:station:wmo:42045:1,2019-02-01T02:30:00Z,26.2168,-96.4998,4.0,0.259422435,27.55253669,1.48,'11111222,11111222,11111222' 
TABS,ioos:station:wmo:42045:1,2019-02-01T03:00:00Z,26.2168,-96.4998,4.0,0.556596802,162.2163636,1.21,'11111222,11111222,11111222' 
TABS,ioos:station:wmo:42045:1,2019-02-01T03:30:00Z,26.2168,-96.4998,4.0,0.593969696,44.99968431,1.07,'11111222,11111222,11111222' 
TABS,ioos:station:wmo:42045:1,2019-02-01T04:00:00Z,26.2168,-96.4998,4.0,0.218403297,164.0548518,0.91,'11111222,11111222,11111222' 
TABS,ioos:station:wmo:42045:1,2019-02-01T04:30:00Z,26.2168,-96.4998,4.0,1.103856875,199.5841584,1.69,'11111222,11111222,11111222' 
TABS,ioos:station:wmo:42045:1,2019-02-01T05:00:00Z,26.2168,-96.4998,4.0,1.880452073,236.0564924,2.35,'11111222,11111222,11111222' 
TABS,ioos:station:wmo:42045:1,2019-02-01T05:30:00Z,26.2168,-96.4998,4.0,1.718138528,245.2249174,2.47,'11111222,11111222,11111222' 
TABS,ioos:station:wmo:42045:1,2019-02-01T06:00:00Z,26.2168,-96.4998,4.0,1.504160896,248.5523138,2.05,'11111222,11111222,11111222' 
TABS,ioos:station:wmo:42045:1,2019-02-01T06:30:00Z,26.2168,-96.4998,4.0,1.964611921,260.9212634,2.7,'11111222,11111222,11111222' 
TABS,ioos:station:wmo:42045:1,2019-02-01T07:00:00Z,26.2168,-96.4998,4.0,1.9209633,319.0103701,2.38,'11111222,11111222,11111222' 
TABS,ioos:station:wmo:42045:1,2019-02-01T07:30:00Z,26.2168,-96.4998,4.0,2.12513529,318.4335171,3.08,'11111222,11111222,11111222' 
TABS,ioos:station:wmo:42045:1,2019-02-01T08:00:00Z,26.2168,-96.4998,4.0,3.391784191,268.1415013,4.28,'11111222,11111222,11111222' 
TABS,ioos:station:wmo:42045:1,2019-02-01T08:30:00Z,26.2168,-96.4998,4.0,4.528598017,275.1944168,5.69,'11111222,11111222,11111222' 
TABS,ioos:station:wmo:42045:1,2019-02-01T09:00:00Z,26.2168,-96.4998,4.0,4.171642362,286.0019562,4.96,'11111222,11111222,11111222' 
TABS,ioos:station:wmo:42045:1,2019-02-01T09:30:00Z,26.2168,-96.4998,4.0,4.322244787,307.4795986,5.17,'11111222,11111222,11111222' 
TABS,ioos:station:wmo:42045:1,2019-02-01T10:00:00Z,26.2168,-96.4998,4.0,4.073156025,314.4030867,4.85,'11111222,11111222,11111222' 
TABS,ioos:station:wmo:42045:1,2019-02-01T10:30:00Z,26.2168,-96.4998,4.0,4.58132077,301.8859978,5.37,'11111222,11111222,11111222' 
TABS,ioos:station:wmo:42045:1,2019-02-01T11:00:00Z,26.2168,-96.4998,4.0,4.172684987,290.0417162,4.96,'11111222,11111222,11111222' 
TABS,ioos:station:wmo:42045:1,2019-02-01T11:30:00Z,26.2168,-96.4998,4.0,4.163568181,281.4988217,5.05,'11111222,11111222,11111222' 
TABS,ioos:station:wmo:42045:1,2019-02-01T12:00:00Z,26.2168,-96.4998,4.0,3.259601203,281.8614716,4.14,'11111222,11111222,11111222' 
TABS,ioos:station:wmo:42045:1,2019-02-01T12:30:00Z,26.2168,-96.4998,4.0,3.780330673,293.3776468,4.85,'11111222,11111222,11111222' 
TABS,ioos:station:wmo:42045:1,2019-02-01T13:00:00Z,26.2168,-96.4998,4.0,4.368581005,293.0435439,5.48,'11111222,11111222,11111222' 
TABS,ioos:station:wmo:42045:1,2019-02-01T13:30:00Z,26.2168,-96.4998,4.0,4.773133143,305.6213194,5.78,'11111222,11111222,11111222' 
TABS,ioos:station:wmo:42045:1,2019-02-01T14:00:00Z,26.2168,-96.4998,4.0,4.751641822,304.6264366,5.68,'11111222,11111222,11111222' 
TABS,ioos:station:wmo:42045:1,2019-02-01T14:30:00Z,26.2168,-96.4998,4.0,4.355605584,302.3399591,5.14,'11111222,11111222,11111222' 
TABS,ioos:station:wmo:42045:1,2019-02-01T15:00:00Z,26.2168,-96.4998,4.0,4.407833935,298.6000188,5.46,'11111222,11111222,11111222' 
TABS,ioos:station:wmo:42045:1,2019-02-01T15:30:00Z,26.2168,-96.4998,4.0,4.035851831,284.3460999,4.98,'11111222,11111222,11111222' 
TABS,ioos:station:wmo:42045:1,2019-02-01T16:00:00Z,26.2168,-96.4998,4.0,4.181865612,284.9666846,4.84,'11111222,11111222,11111222' 
TABS,ioos:station:wmo:42045:1,2019-02-01T16:30:00Z,26.2168,-96.4998,4.0,3.628622328,266.0493911,4.39,'11111222,11111222,11111222' 
TABS,ioos:station:wmo:42045:1,2019-02-01T17:00:00Z,26.2168,-96.4998,4.0,3.678654645,264.2274287,4.3,'11111222,11111222,11111222' 
TABS,ioos:station:wmo:42045:1,2019-02-01T17:30:00Z,26.2168,-96.4998,4.0,3.668296607,257.4034562,4.26,'11111222,11111222,11111222' 
TABS,ioos:station:wmo:42045:1,2019-02-01T18:00:00Z,26.2168,-96.4998,4.0,4.029342378,250.5757859,4.75,'11111222,11111222,11111222' 
TABS,ioos:station:wmo:42045:1,2019-02-01T18:30:00Z,26.2168,-96.4998,4.0,4.364974227,246.0775501,5.12,'11111222,11111222,11111222' 
TABS,ioos:station:wmo:42045:1,2019-02-01T19:00:00Z,26.2168,-96.4998,4.0,4.570831434,250.1775818,5.57,'11111222,11111222,11111222' 
TABS,ioos:station:wmo:42045:1,2019-02-01T19:30:00Z,26.2168,-96.4998,4.0,4.981335162,260.2918785,5.64,'11111222,11111222,11111222' 
TABS,ioos:station:wmo:42045:1,2019-02-01T20:00:00Z,26.2168,-96.4998,4.0,5.131335109,259.7850609,6.23,'11111222,11111222,11111222' 
TABS,ioos:station:wmo:42045:1,2019-02-01T20:30:00Z,26.2168,-96.4998,4.0,5.288676583,264.0307022,6.08,'11111222,11111222,11111222' 
TABS,ioos:station:wmo:42045:1,2019-02-01T21:00:00Z,26.2168,-96.4998,4.0,4.436000451,255.7758327,7.5,'11111222,11111222,11111222' 
TABS,ioos:station:wmo:42045:1,2019-02-01T21:30:00Z,26.2168,-96.4998,4.0,4.10698186,263.4287314,4.94,'11111222,11111222,11111222' 
TABS,ioos:station:wmo:42045:1,2019-02-01T22:00:00Z,26.2168,-96.4998,4.0,2.294013949,286.4599763,3.26,'11111222,11111222,11111222' 
TABS,ioos:station:wmo:42045:1,2019-02-01T22:30:00Z,26.2168,-96.4998,4.0,2.340619576,315.5191764,3.56,'11111222,11111222,11111222' 
TABS,ioos:station:wmo:42045:1,2019-02-01T23:00:00Z,26.2168,-96.4998,4.0,2.045605045,312.4243182,3.17,'11111222,11111222,11111222' 
TABS,ioos:station:wmo:42045:1,2019-02-01T23:30:00Z,26.2168,-96.4998,4.0,1.597028491,340.9976187,3.0,'11111222,11111222,11111222' 
TABS,ioos:station:wmo:42045:1,2019-02-02T00:00:00Z,26.2168,-96.4998,4.0,2.890432494,0.990964799,4.36,'11111222,11111222,11111222' 
TABS,ioos:station:wmo:42045:1,2019-02-02T00:30:00Z,26.2168,-96.4998,4.0,3.175688902,356.5697691,4.38,'11111222,11111222,11111222' 
TABS,ioos:station:wmo:42045:1,2019-02-02T01:00:00Z,26.2168,-96.4998,4.0,2.26,7.627921372,2.93,'11111222,11111222,11111222' 
TABS,ioos:station:wmo:42045:1,2019-02-02T01:30:00Z,26.2168,-96.4998,4.0,2.888771365,23.45875877,3.5,'11111222,11111222,11111222' 
TABS,ioos:station:wmo:42045:1,2019-02-02T02:00:00Z,26.2168,-96.4998,4.0,2.419938016,40.13873051,3.28,'11111222,11111222,11111222' 
TABS,ioos:station:wmo:42045:1,2019-02-02T02:30:00Z,26.2168,-96.4998,4.0,1.706985647,51.18260002,2.13,'11111222,11111222,11111222' 
TABS,ioos:station:wmo:42045:1,2019-02-02T03:00:00Z,26.2168,-96.4998,4.0,1.375936045,32.53478062,1.71,'11111222,11111222,11111222' 
TABS,ioos:station:wmo:42045:1,2019-02-02T03:30:00Z,26.2168,-96.4998,4.0,1.09,56.60116871,1.43,'11111222,11111222,11111222' 
TABS,ioos:station:wmo:42045:1,2019-02-02T04:00:00Z,26.2168,-96.4998,4.0,0.53141321,70.20074903,0.79,'11111222,11111222,11111222' 
TABS,ioos:station:wmo:42045:1,2019-02-02T04:30:00Z,26.2168,-96.4998,4.0,1.278827588,353.2637941,1.69,'11111222,11111222,11111222' 
TABS,ioos:station:wmo:42045:1,2019-02-02T05:00:00Z,26.2168,-96.4998,4.0,1.564161117,352.284134,1.76,'11111222,11111222,11111222' 
TABS,ioos:station:wmo:42045:1,2019-02-02T05:30:00Z,26.2168,-96.4998,4.0,1.086876258,334.3778535,1.41,'11111222,11111222,11111222' 
TABS,ioos:station:wmo:42045:1,2019-02-02T06:00:00Z,26.2168,-96.4998,4.0,1.602279626,348.4794965,2.48,'11111222,11111222,11111222' 
TABS,ioos:station:wmo:42045:1,2019-02-02T06:30:00Z,26.2168,-96.4998,4.0,1.073545528,350.8884538,1.69,'11111222,11111222,11111222' 
TABS,ioos:station:wmo:42045:1,2019-02-02T07:00:00Z,26.2168,-96.4998,4.0,1.922602403,357.0183353,2.36,'11111222,11111222,11111222' 
TABS,ioos:station:wmo:42045:1,2019-02-02T07:30:00Z,26.2168,-96.4998,4.0,1.557562198,12.60836685,1.97,'11111222,11111222,11111222' 
TABS,ioos:station:wmo:42045:1,2019-02-02T08:00:00Z,26.2168,-96.4998,4.0,1.674425275,344.0544309,1.94,'11111222,11111222,11111222' 
TABS,ioos:station:wmo:42045:1,2019-02-02T08:30:00Z,26.2168,-96.4998,4.0,1.534731247,331.5979604,2.0,'11111222,11111222,11111222' 
TABS,ioos:station:wmo:42045:1,2019-02-02T09:00:00Z,26.2168,-96.4998,4.0,1.172731853,24.16064817,1.54,'11111222,11111222,11111222' 
TABS,ioos:station:wmo:42045:1,2019-02-02T09:30:00Z,26.2168,-96.4998,4.0,1.052330746,3.813855457,1.91,'11111222,11111222,11111222' 
TABS,ioos:station:wmo:42045:1,2019-02-02T10:00:00Z,26.2168,-96.4998,4.0,1.463283978,280.2347788,1.94,'11111222,11111222,11111222' 
TABS,ioos:station:wmo:42045:1,2019-02-02T10:30:00Z,26.2168,-96.4998,4.0,1.774852107,314.7716265,2.18,'11111222,11111222,11111222' 
TABS,ioos:station:wmo:42045:1,2019-02-02T11:00:00Z,26.2168,-96.4998,4.0,2.328626204,338.0613604,2.81,'11111222,11111222,11111222' 
TABS,ioos:station:wmo:42045:1,2019-02-02T11:30:00Z,26.2168,-96.4998,4.0,2.666477077,340.2737415,3.01,'11111222,11111222,11111222' 
TABS,ioos:station:wmo:42045:1,2019-02-02T12:00:00Z,26.2168,-96.4998,4.0,1.537693077,337.4373018,1.92,'11111222,11111222,11111222' 
TABS,ioos:station:wmo:42045:1,2019-02-02T12:30:00Z,26.2168,-96.4998,4.0,1.813945975,325.7841674,2.22,'11111222,11111222,11111222' 
TABS,ioos:station:wmo:42045:1,2019-02-02T13:00:00Z,26.2168,-96.4998,4.0,1.910497317,349.7486148,2.3,'11111222,11111222,11111222' 
TABS,ioos:station:wmo:42045:1,2019-02-02T13:30:00Z,26.2168,-96.4998,4.0,1.454372717,328.4955965,2.03,'11111222,11111222,11111222' 
TABS,ioos:station:wmo:42045:1,2019-02-02T14:00:00Z,26.2168,-96.4998,4.0,1.236931688,14.03600019,1.56,'11111222,11111222,11111222' 
TABS,ioos:station:wmo:42045:1,2019-02-02T14:30:00Z,26.2168,-96.4998,4.0,1.732166274,53.92365189,2.23,'11111222,11111222,11111222' 
TABS,ioos:station:wmo:42045:1,2019-02-02T15:00:00Z,26.2168,-96.4998,4.0,2.640473442,98.71356783,3.16,'11111222,11111222,11111222' 
TABS,ioos:station:wmo:42045:1,2019-02-02T15:30:00Z,26.2168,-96.4998,4.0,3.753957911,100.5919239,4.36,'11111222,11111222,11111222' 
TABS,ioos:station:wmo:42045:1,2019-02-02T16:00:00Z,26.2168,-96.4998,4.0,3.940812099,107.4237911,4.38,'11111222,11111222,11111222' 
TABS,ioos:station:wmo:42045:1,2019-02-02T16:30:00Z,26.2168,-96.4998,4.0,3.298757342,101.719088,3.69,'11111222,11111222,11111222' 
TABS,ioos:station:wmo:42045:1,2019-02-02T17:00:00Z,26.2168,-96.4998,4.0,3.01869177,100.3052433,3.46,'11111222,11111222,11111222' 
TABS,ioos:station:wmo:42045:1,2019-02-02T17:30:00Z,26.2168,-96.4998,4.0,1.69649639,101.9064451,2.06,'11111222,11111222,11111222' 
TABS,ioos:station:wmo:42045:1,2019-02-02T18:00:00Z,26.2168,-96.4998,4.0,2.63865496,80.18030141,3.19,'11111222,11111222,11111222' 
TABS,ioos:station:wmo:42045:1,2019-02-02T18:30:00Z,26.2168,-96.4998,4.0,2.294210104,116.6770973,2.7,'11111222,11111222,11111222' 
TABS,ioos:station:wmo:42045:1,2019-02-02T19:00:00Z,26.2168,-96.4998,4.0,3.76438574,124.8302611,4.45,'11111222,11111222,11111222' 
TABS,ioos:station:wmo:42045:1,2019-02-02T19:30:00Z,26.2168,-96.4998,4.0,3.971662121,123.8104423,4.53,'11111222,11111222,11111222' 
TABS,ioos:station:wmo:42045:1,2019-02-02T20:00:00Z,26.2168,-96.4998,4.0,3.605731549,124.263347,4.0,'11111222,11111222,11111222' 
TABS,ioos:station:wmo:42045:1,2019-02-02T20:30:00Z,26.2168,-96.4998,4.0,3.392359061,122.8471986,3.82,'11111222,11111222,11111222' 
TABS,ioos:station:wmo:42045:1,2019-02-02T21:00:00Z,26.2168,-96.4998,4.0,3.222623155,120.3847649,3.69,'11111222,11111222,11111222' 
TABS,ioos:station:wmo:42045:1,2019-02-02T21:30:00Z,26.2168,-96.4998,4.0,3.935695618,123.2866415,4.4,'11111222,11111222,11111222' 
TABS,ioos:station:wmo:42045:1,2019-02-02T22:00:00Z,26.2168,-96.4998,4.0,3.103949098,122.7688434,3.52,'11111222,11111222,11111222' 
TABS,ioos:station:wmo:42045:1,2019-02-02T22:30:00Z,26.2168,-96.4998,4.0,2.916659048,125.6521957,3.62,'11111222,11111222,11111222' 
TABS,ioos:station:wmo:42045:1,2019-02-02T23:00:00Z,26.2168,-96.4998,4.0,1.791005304,91.92022656,2.56,'11111222,11111222,11111222' 
TABS,ioos:station:wmo:42045:1,2019-02-02T23:30:00Z,26.2168,-96.4998,4.0,2.295321328,81.4811763,2.65,'11111222,11111222,11111222' 
TABS,ioos:station:wmo:42045:1,2019-02-03T00:00:00Z,26.2168,-96.4998,4.0,3.150872895,98.02763966,3.5,'11111222,11111222,11111222' 
TABS,ioos:station:wmo:42045:1,2019-02-03T00:30:00Z,26.2168,-96.4998,4.0,2.729706944,94.83377537,3.57,'11111222,11111222,11111222' 
TABS,ioos:station:wmo:42045:1,2019-02-03T01:00:00Z,26.2168,-96.4998,4.0,4.200023809,115.5282219,4.81,'11111222,11111222,11111222' 
TABS,ioos:station:wmo:42045:1,2019-02-03T01:30:00Z,26.2168,-96.4998,4.0,3.623106402,112.3891053,4.16,'11111222,11111222,11111222' 
TABS,ioos:station:wmo:42045:1,2019-02-03T02:00:00Z,26.2168,-96.4998,4.0,3.085854825,116.1502314,3.93,'11111222,11111222,11111222' 
TABS,ioos:station:wmo:42045:1,2019-02-03T02:30:00Z,26.2168,-96.4998,4.0,3.421125546,110.7132309,3.88,'11111222,11111222,11111222' 
TABS,ioos:station:wmo:42045:1,2019-02-03T03:00:00Z,26.2168,-96.4998,4.0,3.182011942,107.18254,3.56,'11111222,11111222,11111222' 
TABS,ioos:station:wmo:42045:1,2019-02-03T03:30:00Z,26.2168,-96.4998,4.0,4.307690797,117.8146497,4.87,'11111222,11111222,11111222' 
TABS,ioos:station:wmo:42045:1,2019-02-03T04:00:00Z,26.2168,-96.4998,4.0,3.665310355,120.1330145,4.32,'11111222,11111222,11111222' 
TABS,ioos:station:wmo:42045:1,2019-02-03T04:30:00Z,26.2168,-96.4998,4.0,2.844503472,115.844748,3.25,'11111222,11111222,11111222' 
TABS,ioos:station:wmo:42045:1,2019-02-03T05:00:00Z,26.2168,-96.4998,4.0,2.835507009,122.1770802,3.31,'11111222,11111222,11111222' 
TABS,ioos:station:wmo:42045:1,2019-02-03T05:30:00Z,26.2168,-96.4998,4.0,2.596998267,125.2815462,2.96,'11111222,11111222,11111222' 
TABS,ioos:station:wmo:42045:1,2019-02-03T06:00:00Z,26.2168,-96.4998,4.0,2.410186715,123.4926119,2.85,'11111222,11111222,11111222' 
TABS,ioos:station:wmo:42045:1,2019-02-03T06:30:00Z,26.2168,-96.4998,4.0,3.274706094,125.68039,3.58,'11111222,11111222,11111222' 
TABS,ioos:station:wmo:42045:1,2019-02-03T07:00:00Z,26.2168,-96.4998,4.0,2.675070093,115.2242853,3.25,'11111222,11111222,11111222' 
TABS,ioos:station:wmo:42045:1,2019-02-03T07:30:00Z,26.2168,-96.4998,4.0,1.884887265,109.2043495,2.27,'11111222,11111222,11111222' 
TABS,ioos:station:wmo:42045:1,2019-02-03T08:00:00Z,26.2168,-96.4998,4.0,0.849293824,102.2365038,1.2,'11111222,11111222,11111222' 
TABS,ioos:station:wmo:42045:1,2019-02-03T08:30:00Z,26.2168,-96.4998,4.0,1.308013761,143.3932212,1.6,'11111222,11111222,11111222' 
TABS,ioos:station:wmo:42045:1,2019-02-03T09:00:00Z,26.2168,-96.4998,4.0,2.859545418,146.6992259,3.27,'11111222,11111222,11111222' 
TABS,ioos:station:wmo:42045:1,2019-02-03T09:30:00Z,26.2168,-96.4998,4.0,3.423287893,138.9088508,3.77,'11111222,11111222,11111222' 
TABS,ioos:station:wmo:42045:1,2019-02-03T10:00:00Z,26.2168,-96.4998,4.0,2.580949438,134.8433417,2.89,'11111222,11111222,11111222' 
TABS,ioos:station:wmo:42045:1,2019-02-03T10:30:00Z,26.2168,-96.4998,4.0,2.244749429,125.3896585,2.55,'11111222,11111222,11111222' 
TABS,ioos:station:wmo:42045:1,2019-02-03T11:00:00Z,26.2168,-96.4998,4.0,2.157614423,133.310115,2.54,'11111222,11111222,11111222' 
TABS,ioos:station:wmo:42045:1,2019-02-03T11:30:00Z,26.2168,-96.4998,4.0,2.898706608,128.135355,3.19,'11111222,11111222,11111222' 
TABS,ioos:station:wmo:42045:1,2019-02-03T12:00:00Z,26.2168,-96.4998,4.0,2.300543414,137.6428548,2.56,'11111222,11111222,11111222' 
TABS,ioos:station:wmo:42045:1,2019-02-03T12:30:00Z,26.2168,-96.4998,4.0,2.623375688,134.8458804,3.05,'11111222,11111222,11111222' 
TABS,ioos:station:wmo:42045:1,2019-02-03T13:00:00Z,26.2168,-96.4998,4.0,2.551960031,129.1159697,2.91,'11111222,11111222,11111222' 
TABS,ioos:station:wmo:42045:1,2019-02-03T13:30:00Z,26.2168,-96.4998,4.0,2.792167617,120.3306409,3.16,'11111222,11111222,11111222' 
TABS,ioos:station:wmo:42045:1,2019-02-03T14:00:00Z,26.2168,-96.4998,4.0,3.61912973,131.7521878,3.96,'11111222,11111222,11111222' 
TABS,ioos:station:wmo:42045:1,2019-02-03T14:30:00Z,26.2168,-96.4998,4.0,3.764465433,137.1532734,4.36,'11111222,11111222,11111222' 
TABS,ioos:station:wmo:42045:1,2019-02-03T15:00:00Z,26.2168,-96.4998,4.0,3.506123215,128.8643095,3.82,'11111222,11111222,11111222' 
TABS,ioos:station:wmo:42045:1,2019-02-03T15:30:00Z,26.2168,-96.4998,4.0,3.620414341,134.7765057,3.99,'11111222,11111222,11111222' 
TABS,ioos:station:wmo:42045:1,2019-02-03T16:00:00Z,26.2168,-96.4998,4.0,3.04415834,120.609038,3.45,'11111222,11111222,11111222' 
TABS,ioos:station:wmo:42045:1,2019-02-03T16:30:00Z,26.2168,-96.4998,4.0,3.408240015,131.3127649,3.65,'11111222,11111222,11111222' 
TABS,ioos:station:wmo:42045:1,2019-02-03T17:00:00Z,26.2168,-96.4998,4.0,3.125699922,135.7780369,3.52,'11111222,11111222,11111222' 
TABS,ioos:station:wmo:42045:1,2019-02-03T17:30:00Z,26.2168,-96.4998,4.0,2.942940706,147.0661996,3.24,'11111222,11111222,11111222' 
TABS,ioos:station:wmo:42045:1,2019-02-03T18:00:00Z,26.2168,-96.4998,4.0,2.606645354,141.8554186,2.92,'11111222,11111222,11111222' 
TABS,ioos:station:wmo:42045:1,2019-02-03T18:30:00Z,26.2168,-96.4998,4.0,2.2627417,135.0003157,2.44,'11111222,11111222,11111222' 
TABS,ioos:station:wmo:42045:1,2019-02-03T19:00:00Z,26.2168,-96.4998,4.0,2.336493099,128.0473745,2.61,'11111222,11111222,11111222' 
TABS,ioos:station:wmo:42045:1,2019-02-03T19:30:00Z,26.2168,-96.4998,4.0,2.135907301,119.4457808,2.37,'11111222,11111222,11111222' 
TABS,ioos:station:wmo:42045:1,2019-02-03T20:00:00Z,26.2168,-96.4998,4.0,1.830027322,118.3859301,2.07,'11111222,11111222,11111222' 
TABS,ioos:station:wmo:42045:1,2019-02-03T20:30:00Z,26.2168,-96.4998,4.0,1.736922566,110.208942,2.07,'11111222,11111222,11111222' 
TABS,ioos:station:wmo:42045:1,2019-02-03T21:00:00Z,26.2168,-96.4998,4.0,1.635145253,107.4380177,1.97,'11111222,11111222,11111222' 
TABS,ioos:station:wmo:42045:1,2019-02-03T21:30:00Z,26.2168,-96.4998,4.0,2.334823334,128.3918668,2.61,'11111222,11111222,11111222' 
TABS,ioos:station:wmo:42045:1,2019-02-03T22:00:00Z,26.2168,-96.4998,4.0,1.461848145,122.7120213,1.87,'11111222,11111222,11111222' 
TABS,ioos:station:wmo:42045:1,2019-02-03T22:30:00Z,26.2168,-96.4998,4.0,1.482464165,113.4527006,1.71,'11111222,11111222,11111222' 
TABS,ioos:station:wmo:42045:1,2019-02-03T23:00:00Z,26.2168,-96.4998,4.0,1.687601849,121.429913,2.36,'11111222,11111222,11111222' 
TABS,ioos:station:wmo:42045:1,2019-02-03T23:30:00Z,26.2168,-96.4998,4.0,1.83806964,106.7593401,2.15,'11111222,11111222,11111222' 
TABS,ioos:station:wmo:42045:1,2019-02-04T00:00:00Z,26.2168,-96.4998,4.0,1.766465397,105.7675666,2.19,'11111222,11111222,11111222' 
TABS,ioos:station:wmo:42045:1,2019-02-04T00:30:00Z,26.2168,-96.4998,4.0,2.593838854,109.8325044,2.93,'11111222,11111222,11111222' 
TABS,ioos:station:wmo:42045:1,2019-02-04T01:00:00Z,26.2168,-96.4998,4.0,2.588609665,119.6354184,3.05,'11111222,11111222,11111222' 
TABS,ioos:station:wmo:42045:1,2019-02-04T01:30:00Z,26.2168,-96.4998,4.0,3.147713456,112.4102059,3.74,'11111222,11111222,11111222' 
TABS,ioos:station:wmo:42045:1,2019-02-04T02:00:00Z,26.2168,-96.4998,4.0,1.840923681,113.3624251,2.17,'11111222,11111222,11111222' 
TABS,ioos:station:wmo:42045:1,2019-02-04T02:30:00Z,26.2168,-96.4998,4.0,1.653420697,120.1320691,1.83,'11111222,11111222,11111222' 
TABS,ioos:station:wmo:42045:1,2019-02-04T03:00:00Z,26.2168,-96.4998,4.0,2.514776332,118.5017139,2.76,'11111222,11111222,11111222' 
TABS,ioos:station:wmo:42045:1,2019-02-04T03:30:00Z,26.2168,-96.4998,4.0,3.69009485,130.1637436,4.31,'11111222,11111222,11111222' 
TABS,ioos:station:wmo:42045:1,2019-02-04T04:00:00Z,26.2168,-96.4998,4.0,3.063070355,130.7639308,3.36,'11111222,11111222,11111222' 
TABS,ioos:station:wmo:42045:1,2019-02-04T04:30:00Z,26.2168,-96.4998,4.0,3.148364655,145.3511771,3.54,'11111222,11111222,11111222' 
TABS,ioos:station:wmo:42045:1,2019-02-04T05:00:00Z,26.2168,-96.4998,4.0,3.714310165,143.8708508,4.1,'11111222,11111222,11111222' 
TABS,ioos:station:wmo:42045:1,2019-02-04T05:30:00Z,26.2168,-96.4998,4.0,3.592005011,141.2159371,4.09,'11111222,11111222,11111222' 
TABS,ioos:station:wmo:42045:1,2019-02-04T06:00:00Z,26.2168,-96.4998,4.0,3.098080051,146.7205685,3.43,'11111222,11111222,11111222' 
TABS,ioos:station:wmo:42045:1,2019-02-04T06:30:00Z,26.2168,-96.4998,4.0,2.887369045,139.6357683,3.38,'11111222,11111222,11111222' 
TABS,ioos:station:wmo:42045:1,2019-02-04T07:00:00Z,26.2168,-96.4998,4.0,3.396115428,142.6580075,3.92,'11111222,11111222,11111222' 
TABS,ioos:station:wmo:42045:1,2019-02-04T07:30:00Z,26.2168,-96.4998,4.0,3.547393409,150.2553987,3.88,'11111222,11111222,11111222' 
TABS,ioos:station:wmo:42045:1,2019-02-04T08:00:00Z,26.2168,-96.4998,4.0,3.653956759,152.8040831,4.16,'11111222,11111222,11111222' 
TABS,ioos:station:wmo:42045:1,2019-02-04T08:30:00Z,26.2168,-96.4998,4.0,4.139975845,149.0365263,4.55,'11111222,11111222,11111222' 
TABS,ioos:station:wmo:42045:1,2019-02-04T09:00:00Z,26.2168,-96.4998,4.0,4.420192304,148.036122,4.82,'11111222,11111222,11111222' 
TABS,ioos:station:wmo:42045:1,2019-02-04T09:30:00Z,26.2168,-96.4998,4.0,4.548955924,152.3649258,5.04,'11111222,11111222,11111222' 
TABS,ioos:station:wmo:42045:1,2019-02-04T10:00:00Z,26.2168,-96.4998,4.0,3.963041761,152.3360042,4.46,'11111222,11111222,11111222' 
TABS,ioos:station:wmo:42045:1,2019-02-04T10:30:00Z,26.2168,-96.4998,4.0,2.861223515,163.972333,3.27,'11111222,11111222,11111222' 
TABS,ioos:station:wmo:42045:1,2019-02-04T11:00:00Z,26.2168,-96.4998,4.0,2.447897057,160.6770713,2.78,'11111222,11111222,11111222' 
TABS,ioos:station:wmo:42045:1,2019-02-04T11:30:00Z,26.2168,-96.4998,4.0,2.068284313,162.266134,2.49,'11111222,11111222,11111222' 
TABS,ioos:station:wmo:42045:1,2019-02-04T12:00:00Z,26.2168,-96.4998,4.0,2.285891511,152.089974,2.66,'11111222,11111222,11111222' 
TABS,ioos:station:wmo:42045:1,2019-02-04T12:30:00Z,26.2168,-96.4998,4.0,1.524631103,112.3600628,1.98,'11111222,11111222,11111222' 
TABS,ioos:station:wmo:42045:1,2019-02-04T13:00:00Z,26.2168,-96.4998,4.0,1.990602924,131.5382507,2.6,'11111222,11111222,11111222' 
TABS,ioos:station:wmo:42045:1,2019-02-04T13:30:00Z,26.2168,-96.4998,4.0,2.596247292,124.4861314,2.97,'11111222,11111222,11111222' 
TABS,ioos:station:wmo:42045:1,2019-02-04T14:00:00Z,26.2168,-96.4998,4.0,2.650471656,127.951154,2.92,'11111222,11111222,11111222' 
TABS,ioos:station:wmo:42045:1,2019-02-04T14:30:00Z,26.2168,-96.4998,4.0,2.88979238,121.2701323,3.42,'11111222,11111222,11111222' 
TABS,ioos:station:wmo:42045:1,2019-02-04T15:00:00Z,26.2168,-96.4998,4.0,3.364758535,118.3933739,3.69,'11111222,11111222,11111222' 
TABS,ioos:station:wmo:42045:1,2019-02-04T15:30:00Z,26.2168,-96.4998,4.0,3.038321905,118.5054633,3.35,'11111222,11111222,11111222' 
TABS,ioos:station:wmo:42045:1,2019-02-04T16:00:00Z,26.2168,-96.4998,4.0,3.411568554,124.2493738,3.71,'11111222,11111222,11111222' 
TABS,ioos:station:wmo:42045:1,2019-02-04T16:30:00Z,26.2168,-96.4998,4.0,2.509282766,112.989084,2.81,'11111222,11111222,11111222' 
TABS,ioos:station:wmo:42045:1,2019-02-04T17:00:00Z,26.2168,-96.4998,4.0,2.350531855,113.8391054,3.16,'11111222,11111222,11111222' 
TABS,ioos:station:wmo:42045:1,2019-02-04T17:30:00Z,26.2168,-96.4998,4.0,4.037140077,130.2783547,4.37,'11111222,11111222,11111222' 
TABS,ioos:station:wmo:42045:1,2019-02-04T18:00:00Z,26.2168,-96.4998,4.0,3.128002558,143.057131,3.47,'11111222,11111222,11111222' 
TABS,ioos:station:wmo:42045:1,2019-02-04T18:30:00Z,26.2168,-96.4998,4.0,3.443980255,138.7674308,3.82,'11111222,11111222,11111222' 